Regional Weather Roundup
Issued by NWS

Home | Current Version | Previous Version | Graphics & Text | Print | Product List | Glossary On
Versions: 1 2 3 4 5 6 7 8 9 10 11 12 13 14 15 16 17 18 19 20 21 22 23 24 25 26 27 28 29 30 31 32 33 34 35 36 37 38 39 40 41 42 43 44 45 46 47 48 49 50
000
ASUS43 KMPX 050001
RWRMN
WEATHER ROUNDUP FOR MINNESOTA
NATIONAL WEATHER SERVICE TWIN CITIES/CHANHASSEN MN
700 PM CDT MON MAY 04 2015


NOTE: "FAIR" INDICATES FEW OR NO CLOUDS BELOW 12,000 FEET WITH NO
SIGNIFICANT WEATHER AND/OR OBSTRUCTIONS TO VISIBILITY. N/A MEANS
CURRENT SKY AND/OR WEATHER CONDITIONS ARE NOT AVAILABLE.

MNZ060>063-068>070-050100-
   Twin Cities Metro

CITY           SKY/WX    TMP DP  RH WIND       PRES   REMARKS
TWIN CITIES    PTSUNNY   68  24  19 NE7       30.16S
6HR MIN TEMP:  66; 6HR MAX TEMP:  72;

ST PAUL        PTSUNNY   69  32  25 N6        30.17R
CRYSTAL        PTSUNNY   70  28  21 NE5       30.16R
LAKEVILLE      CLOUDY    64  36  34 E6        30.16S
EDEN PRAIRIE   PTSUNNY   69  31  24 E6        30.15S
6HR MIN TEMP:  65; 6HR MAX TEMP:  71;

SOUTH ST PAUL  PTSUNNY   69  28  21 CALM      30.16S
LAKE ELMO      FAIR      70  32  24 E3        30.18S
$$
MNZ001>005-007-008-013>017-022>024-027-028-050100-
   Northwest Minnesota

CITY           SKY/WX    TMP DP  RH WIND       PRES   REMARKS
BEMIDJI        SUNNY     64  24  22 E5        30.18S
HALLOCK        SUNNY     68  14  12 NW6       30.13S
ROSEAU         MOSUNNY   66  25  20 W5        30.16S
WARROAD        SUNNY     64  34  32 CALM      30.17R
THIEF RVR FALL SUNNY     66  25  20 S3        30.18S
CROOKSTON      SUNNY     66  25  20 CALM      30.17S
FOSSTON        SUNNY     68  23  18 CALM      30.18S
DETROIT LAKES  MOSUNNY   64  28  25 S3        30.20S
MOORHEAD       MOSUNNY   68  23  18 CALM      30.18S
PARK RAPIDS    SUNNY     65  28  24 SW6       30.18S
MAHNOMEN       FAIR      66  24  20 N5        30.17S
$$
MNZ006-009>011-018-025>026-050100-
   North Central Minnesota

CITY           SKY/WX    TMP DP  RH WIND       PRES   REMARKS
BAUDETTE       PTSUNNY   64  27  24 N7        30.17S
FLAG ISLAND    PTSUNNY   55  36  47 CALM      30.15S
INTL FALLS     MOSUNNY   62  26  25 W6        30.18S
6HR MIN TEMP:  58; 6HR MAX TEMP:  65;

WASKISH        SUNNY     63  30  29 CALM      30.19S
BIG FORK       SUNNY     64  21  19 NW5       30.20R
LONGVILLE      MOSUNNY   64  19  17 CALM      30.20S
GRAND RAPIDS   MOSUNNY   63  21  20 N5        30.20S
CRANE LAKE     SUNNY     61  25  25 NW5       30.21S
COOK           SUNNY     63  25  23 N5        30.19S
WALKER         FAIR      62  23  22 SE5       30.19S
$$
MNZ012-019>021-037-050100-
   Northeast Minnesota

CITY           SKY/WX    TMP DP  RH WIND       PRES   REMARKS
DULUTH         MOSUNNY   65  17  15 NW6       30.18S
6HR MIN TEMP:  62; 6HR MAX TEMP:  67;

ELY            SUNNY     61  21  21 W6        30.19S
HIBBING        SUNNY     64  18  17 NW5       30.18S
EVELETH        SUNNY     63  21  20 NW7       30.20R
DULUTH HARBOR  MOSUNNY   66  10  11 E3        30.18F
TWO HARBORS    MOSUNNY   66  32  28 S5        30.16S
SILVER BAY     MOSUNNY   63  21  20 SE3       30.17S
GRAND MARAIS     N/A     44  35  70 SW8       30.19S
G MARAIS ARPRT SUNNY     55  25  30 S3        30.20S
$$
MNZ029>031-032-039>041-046>048-054>057-064-050100-
   West Central Minnesota

CITY           SKY/WX    TMP DP  RH WIND       PRES   REMARKS
FERGUS FALLS   MOSUNNY   66  32  28 CALM      30.19R
WHEATON        MOSUNNY   66  28  24 CALM      30.18S
MORRIS         MOSUNNY   68  27  21 E3        30.17S
ALEXANDRIA     MOSUNNY   65  30  27 N6        30.19S
ELBOW LAKE     FAIR      65  30  27 E8        30.18S
WADENA         MOSUNNY   63  30  29 CALM      30.19S
GLENWOOD       MOSUNNY   66  28  24 N6        30.19R
APPLETON       PTSUNNY   70  23  17 NE6       30.16S
BENSON         MOSUNNY   70  23  17 E5        30.17S
ORTONVILLE     PTSUNNY   70  25  18 E6        30.17R
MADISON        PTSUNNY   70  25  18 NE10G16   30.16S
WILLMAR        FAIR      70  30  23 NE7       30.19R
$$
MNZ033>034-036-042>043-049>051-058-059-050100-
   Central Minnesota

CITY           SKY/WX    TMP DP  RH WIND       PRES   REMARKS
ST CLOUD       PTSUNNY   67  28  23 NE8       30.18R
6HR MIN TEMP:  66; 6HR MAX TEMP:  69;

SAUK CENTRE    FAIR      65  33  29 CALM      30.19R
PAYNESVILLE    MOSUNNY   64  30  27 N6        30.19R
AITKIN         PTSUNNY   64   1   8 CALM      30.18S
PINE RIVER     MOSUNNY   63  32  31 CALM      30.22S
BRAINERD       MOSUNNY   63  21  20 N5        30.21R
STAPLES        MOSUNNY   63  27  25 N3        30.20R
LONG PRAIRIE   FAIR      63  32  31 N5        30.20R
LITTLE FALLS   PTSUNNY   64  23  20 NE3       30.20R
LITCHFIELD     PTSUNNY   70  28  21 E6        30.18S
BUFFALO        PTSUNNY   67  28  23 N8        30.18F
MAPLE LAKE     PTSUNNY   66  33  29 NE7       30.19S
$$
MNZ037-044-045-052-053-050100-
   East Central Minnesota

CITY           SKY/WX    TMP DP  RH WIND       PRES   REMARKS
PRINCETON      PTSUNNY   66  30  26 NW8       30.19R
MORA           MOSUNNY   63  30  29 NW3       30.20S
CAMBRIDGE      PTSUNNY   70  43  37 N3        30.16S
RUSH CITY      PTSUNNY   65  27  23 N5        30.18S
MOOSE LAKE     PTSUNNY   63  27  25 N6        30.18R
HINCKLEY       FAIR      63  25  23 N5        30.18S
CLOQUET        MOSUNNY   64   9  11 W5        30.19S
MCGREGOR       PTSUNNY   63  21  20 CALM      30.20R
$$
MNZ071>073-080-081-089-090-097-098-050100-
   Southwest Minnesota

CITY           SKY/WX    TMP DP  RH WIND       PRES   REMARKS
MONTEVIDEO     PTSUNNY   70  28  21 SE12      30.17S
GRANITE FALLS  PTSUNNY   68  28  22 NE7       30.17F
CANBY          PTSUNNY   69  24  18 NE8       30.16F
MARSHALL       PTSUNNY   70  25  18 E13G18    30.14S
REDWOOD FALLS  PTSUNNY   70  26  19 NE7       30.15R
OLIVIA         MOSUNNY   68  28  22 NE7       30.16S
WINDOM         PTSUNNY   66  28  24 E8        30.16S
WORTHINGTON    PTSUNNY   66  28  24 E12       30.15S
JACKSON        PTSUNNY   68  21  17 NE9       30.16S
TRACY          PTSUNNY   70  28  20 E9        30.15S
SLAYTON        CLOUDY    68  24  18 E7        30.16R
$$
MNZ065>067-074>077-082>085-091>093-050100-
   South Central Minnesota

CITY           SKY/WX    TMP DP  RH WIND       PRES   REMARKS
MANKATO        CLOUDY    66  30  26 E8        30.16S
NEW ULM        CLOUDY    66  30  26 E10       30.16R
ST JAMES       CLOUDY    68  25  19 NE12      30.16S
FAIRMONT       PTSUNNY   70  28  21 NE12      30.14S
GLENCOE        PTSUNNY   69  31  24 NE5       30.16R
FARIBAULT      CLOUDY    66  30  26 E5        30.17R
OWATONNA       CLOUDY    66  32  28 E8        30.17R
WASECA         CLOUDY    64  34  32 NE8       30.17F
ALBERT LEA     CLOUDY    64  36  34 E7        30.16S
$$
MNZ078>079-086>088-094>096-050100-
   Southeast Minnesota

CITY           SKY/WX    TMP DP  RH WIND       PRES   REMARKS
ROCHESTER      CLOUDY    63  43  48 E5        30.17S
6HR MIN TEMP:  63; 6HR MAX TEMP:  67;

RED WING       CLOUDY    68  28  22 CALM      30.15S
STANTON        CLOUDY    68  28  22 E6        30.15S
DODGE CENTER   CLOUDY    66  32  28 NE7       30.17S
WINONA         CLOUDY    70  37  30 NE3       30.16S
AUSTIN         CLOUDY    63  41  45 NE6       30.15F
PRESTON        CLOUDY    62  39  43 NE9       30.16S
$$
ABBREVIATIONS USED IN REMARKS
   TC - TEMPERATURES IN CELSIUS
  WCI - WIND CHILL INDEX
   HX - HEAT INDEX
  VSB - VISIBILITY
$$


USA.gov is the U.S. government's official web portal to all federal, state and local government web resources and services.